Find Starlink 38266

NORAD ID: 100255 Int'l Des: 2026-181 Owner: SPXS Country: US Constellation: starlink operational

現在のビュー

3D地球を読み込み中...

About Starlink 38266

Starlink 38266 (NORAD 100255) is a starlink constellation satellite launched Aug 8, 2026 by SPXS of US. with a mass of 575.00 kg.

次回通過

Passes for default location (London). Set your location on the main map for personalized predictions.

高度履歴

Loading altitude history...

軌道要素

1 A0255U 26181K 26255.10068941 .00158850 00000-0 10438-2 0 9994
2 A0255 97.2852 298.2124 0000950 112.1954 247.9412 15.75243289 6632
Epoch: Sep 12, 2026 • Age: 14 hours

現在のステータス

高度 346.6 km
遠地点 / 近地点 N/A
速度 7.70 km/s
衛星直下点 -2.01°S, 126.72°W
打ち上げ日 Aug 8, 2026
運用期間 35 days
タイプ internet

技術仕様

分類 Payload
質量 575.00 kg
乾燥質量 530.00 kg
総質量 575.00 kg
長さ 0.30 m
直径 4.10 m
スパン 29.00 m
形状 Box + pan
製造者 SPXS
バスタイプ Starlink V2MO
フェーズステータス In Orbit
所有者/国 SPXS/US

Most Searched